Weather History for KLAA - August, 2013

Change the Weather History Date:

Thursday, August 22, 2013

  Actual Average Record
Temperature  
Mean Temperature 80 °F 74 °F  
Max Temperature 92 °F 89 °F 106 °F (1938)
Min Temperature 68 °F 60 °F 49 °F (1964)
Degree Days  
Heating Degree Days 0 0  
Month to date heating degree days 0 0  
Since 1 June heating degree days 16 22  
Since 1 July heating degree days 0 2  
Cooling Degree Days 15 10  
Month to date cooling degree days 229 249  
Year to date cooling degree days 1185 913  
Since 1 June cooling degree days 1044 853  
Growing Degree Days 30 (Base 50)    
Moisture  
Dew Point 59 °F    
Average Humidity 57    
Maximum Humidity 78    
Minimum Humidity 36    
Precipitation  
Precipitation 0.00 in 0.06 in 0.72 in (1969)
Month to date precipitation 2.31 1.80  
Year to date precipitation 6.62 11.89  
Sea Level Pressure  
Sea Level Pressure 29.88 in    
Wind  
Wind Speed 9 mph (NNE)    
Max Wind Speed 25 mph    
Max Gust Speed 35 mph    
Visibility 9 miles    
Events      
T = Trace of Precipitation, MM = Missing Value Source: NWS Daily Summary

Daily Weather History Graph

Daily Weather History Graph

Search for Another Location

Airport or City:

Trip Planner

Search our weather history database for the weather conditions in past years. The results will help you decide how hot, cold, wet, or windy it might be!

Date:

Astronomy

Aug. 22, 2013 Rise Set
Actual Time 6:12 AM MDT 7:34 PM MDT
Civil Twilight 5:44 AM MDT 8:01 PM MDT
Nautical Twilight 5:11 AM MDT 8:34 PM MDT
Astronomical Twilight 4:36 AM MDT 9:09 PM MDT
Moon 8:22 PM MDT (8/22) 8:00 AM MDT (8/22)
Length of Visible Light 14h 17m
Length of Day
13h 22m
Waning Gibbous, 96% of the Moon is Illuminated
Aug 22
Waning Gibbous
Aug 28
Last Quarter
Sep 5
New
Sep 12
First Quarter
Sep 19
Full

Hourly Weather History & Observations

Time (MDT) Temp. Heat Index Dew Point Humidity Pressure Visibility Wind Dir Wind Speed Gust Speed Precip Events Conditions
12:53 AM 78.1 °F - 51.1 °F 39% 29.81 in 10.0 mi SSW 19.6 mph 27.6 mph N/A   Clear
1:53 AM 79.0 °F - 51.1 °F 38% 29.80 in 10.0 mi SSW 20.7 mph 29.9 mph N/A   Clear
2:53 AM 75.9 °F - 50.0 °F 40% 29.82 in 10.0 mi SW 13.8 mph - N/A   Clear
3:53 AM 73.0 °F - 51.1 °F 46% 29.83 in 10.0 mi WSW 6.9 mph - N/A   Clear
4:53 AM 69.1 °F - 50.0 °F 51% 29.87 in 10.0 mi WNW 4.6 mph - N/A   Clear
5:53 AM 70.0 °F - 63.0 °F 78% 29.88 in 8.0 mi NNW 8.1 mph - N/A   Clear
6:53 AM 69.1 °F - 62.1 °F 78% 29.91 in 7.0 mi NNW 4.6 mph - N/A   Clear
7:53 AM 72.0 °F - 62.1 °F 71% 29.93 in 7.0 mi NW 9.2 mph - N/A   Clear
8:53 AM 75.9 °F - 62.1 °F 62% 29.93 in 8.0 mi NW 6.9 mph - N/A   Clear
9:53 AM 81.0 °F 81.9 °F 62.1 °F 52% 29.94 in 8.0 mi North 6.9 mph - N/A   Clear
10:53 AM 82.0 °F 83.0 °F 62.1 °F 51% 29.94 in 8.0 mi North 8.1 mph - N/A   Clear
11:53 AM 86.0 °F 86.8 °F 63.0 °F 46% 29.92 in 9.0 mi NNE 10.4 mph 16.1 mph N/A   Clear
12:53 PM 89.1 °F 90.0 °F 63.0 °F 42% 29.90 in 9.0 mi NE 10.4 mph 19.6 mph N/A   Clear
1:53 PM 90.0 °F 90.3 °F 62.1 °F 39% 29.89 in 9.0 mi NNE 11.5 mph - N/A   Clear
2:53 PM 91.0 °F 90.9 °F 61.0 °F 36% 29.88 in 9.0 mi ENE 9.2 mph 16.1 mph N/A   Clear
3:53 PM 91.0 °F 91.5 °F 62.1 °F 38% 29.86 in 9.0 mi ENE 12.7 mph - N/A   Clear
4:53 PM 91.0 °F 91.5 °F 62.1 °F 38% 29.85 in 9.0 mi NE 12.7 mph - N/A   Clear
5:53 PM 89.1 °F 88.8 °F 60.1 °F 38% 29.85 in 9.0 mi NE 9.2 mph - N/A   Clear
6:53 PM 86.0 °F 86.1 °F 61.0 °F 43% 29.85 in 9.0 mi ENE 6.9 mph - N/A   Clear
7:53 PM 78.1 °F - 62.1 °F 58% 29.86 in 9.0 mi NE 6.9 mph - N/A   Clear
8:53 PM 75.9 °F - 61.0 °F 60% 29.88 in 9.0 mi NE 5.8 mph - N/A   Clear
9:53 PM 75.0 °F - 61.0 °F 62% 29.90 in 9.0 mi NE 4.6 mph - N/A   Clear
10:53 PM 73.9 °F - 60.1 °F 62% 29.89 in 9.0 mi ENE 4.6 mph - N/A   Clear
11:53 PM 72.0 °F - 60.1 °F 66% 29.89 in 9.0 mi Calm Calm - N/A   Clear